File timestamp: Fri Aug 12 01:00:00 2016, Internal temp: 30.21240234375
1470963600.99, -0.0241951420903206, -0.0140279522165656, -0.00907633081078529, 33863, 32603, 23192, -36.7861976623535
1470963602, -0.0223871152848005, -0.0143408086150885, -0.00799407251179218, 33865, 32614, 23178, NaN
1470963603, -0.0193794127553701, -0.0146915931254625, -0.00720985094085336, 33862, 32614, 23185, NaN
1470963604, -0.0154828727245331, -0.0150609938427806, -0.0076046627946198, 33873, 32592, 23173, NaN
1470963605, -0.0104865934699774, -0.0153189301490784, -0.00762556586414576, 33878, 32604, 23179, NaN
1470963605, -0.0050343326292932, -0.0149323083460331, -0.00747850583866239, 33870, 32594, 23182, NaN
1470963606.006, 6.20503396930872e-06, -0.0135925961658359, -0.00727864215150476, 33881, 32592, 23182, NaN
1470963607.006, 0.00514638889580965, -0.0131415957584977, -0.00712360301986337, 33872, 32599, 23178, NaN
1470963608.006, 0.0105293020606041, -0.0130247194319963, -0.00715055456385016, 33866, 32593, 23183, NaN
1470963609.006, 0.0162853468209505, -0.013492957688868, -0.00694775627925992, 33868, 32598, 23180, NaN
1470963609.006, 0.0228027068078518, -0.0134299630299211, -0.00643509766086936, 33878, 32607, 23185, NaN
1470963610.014, 0.0290300510823727, -0.0130741829052567, -0.00628931121900678, 33859, 32600, 23179, NaN
1470963611.014, 0.033727403730154, -0.0127787524834275, -0.00690961582586169, 33865, 32604, 23181, NaN
1470963612.014, 0.0375747866928577, -0.013519499450922, -0.00786304287612438, 33865, 32601, 23186, NaN
1470963613.014, 0.0411509238183498, -0.0128539139404893, -0.00763147184625268, 33867, 32613, 23172, NaN
1470963613.014, 0.0441848114132881, -0.0122186783701181, -0.00848761759698391, 33871, 32594, 23179, NaN
1470963614.022, 0.0460979305207729, -0.0128891160711646, -0.00833244156092405, 33857, 32604, 23185, NaN
1470963615.022, 0.0474832095205784, -0.0130845364183187, -0.00871644727885723, 33871, 32604, 23182, NaN
1470963616.022, 0.0481827333569527, -0.0127010485157371, -0.00910220108926296, 33869, 32599, 23184, NaN
1470963617.022, 0.04755924269557, -0.0128869451582432, -0.00848978664726019, 33865, 32602, 23177, NaN
1470963617.022, 0.0462592914700508, -0.0125086307525635, -0.00813063606619835, 33871, 32599, 23174, NaN
1470963618.03, 0.0442050583660603, -0.0122545091435313, -0.00811088643968105, 33864, 32611, 23186, NaN
1470963619, 0.0406620614230633, -0.0116904675960541, -0.00795589294284582, 33872, 32600, 23182, NaN
1470963620, 0.0367744043469429, -0.0115626752376556, -0.0075496593490243, 33870, 32596, 23170, NaN
1470963621, 0.0326186679303646, -0.0110819498077035, -0.00760494731366634, 33853, 32597, 23176, NaN
1470963622, 0.0273245051503181, -0.0120371393859386, -0.00676802452653646, 33879, 32594, 23179, NaN
1470963623, 0.0214045960456133, -0.0115665327757597, -0.00760912662371993, 33880, 32602, 23179, NaN
1470963624, 0.0153358429670334, -0.0120713487267494, -0.0066614942625165, 33867, 32596, 23176, NaN
1470963625, 0.00778285507112741, -0.0122815361246467, -0.00680338172242045, 33883, 32593, 23173, NaN
1470963626, 0.00165851239580661, -0.0127912163734436, -0.00694468198344111, 33862, 32592, 23184, NaN
1470963627, -0.00373428897000849, -0.0114509910345078, -0.00670390669256449, 33871, 32603, 23179, NaN
1470963628, -0.00949715543538332, -0.0116114020347595, -0.00597609858959913, 33863, 32604, 23188, NaN
1470963629, -0.014536595903337, -0.0126002402976155, -0.00608664005994797, 33874, 32603, 23186, NaN
1470963630, -0.0196035094559193, -0.0123857082799077, -0.00662546372041106, 33863, 32613, 23181, NaN
1470963631, -0.0236655175685883, -0.0125655075535178, -0.0065921195782721, 33863, 32604, 23184, NaN
1470963631, -0.0276536215096712, -0.0125569114461541, -0.00620177993550897, 33856, 32596, 23189, NaN
1470963632.002, -0.0308009255677462, -0.0114436447620392, -0.00696153938770294, 33869, 32599, 23194, NaN
1470963633.002, -0.0322070717811584, -0.0120832687243819, -0.00746440095826983, 33866, 32605, 23184, NaN
1470963634.002, -0.0320710763335228, -0.0116866864264011, -0.00810760352760553, 33864, 32613, 23180, NaN
1470963635.002, -0.0309471543878317, -0.011275970377028, -0.00868041813373566, 33866, 32592, 23173, NaN
1470963635.002, -0.0292233489453793, -0.010235084220767, -0.00934119522571564, 33874, 32593, 23178, NaN
1470963636.004, -0.0262392964214087, -0.00991657190024853, -0.0096537359058857, 33872, 32596, 23179, NaN
1470963637.004, -0.019583698362112, -0.0101003367453814, -0.00951762963086367, 33865, 32598, 23180, NaN
1470963638.004, -0.00572334602475166, -0.0102245239540935, -0.00918378215283155, 33872, 32596, 23169, NaN
1470963639.004, 0.0154575975611806, -0.00995933450758457, -0.00877078622579575, 33883, 32606, 23178, NaN
1470963640.004, 0.0454671308398247, -0.0102465059608221, -0.0082590514793992, 33865, 32597, 23179, NaN
1470963641.004, 0.0817458927631378, -0.0104769412428141, -0.00802508555352688, 33874, 32600, 23187, NaN
1470963642.004, 0.120998494327068, -0.0108542768284678, -0.00894162897020578, 33871, 32608, 23187, NaN
1470963643.004, 0.0948048457503319, -0.0100896712392569, -0.00855769403278828, 33878, 32604, 23177, NaN
1470963644.004, 0.0591216012835503, -0.0100092273205519, -0.00766932824626565, 33875, 32583, 23203, NaN
1470963645.004, 0.0289284475147724, -0.0101829310879111, -0.00796402245759964, 33860, 32604, 23179, NaN
1470963646.004, 0.00377034279517829, -0.0105256205424666, -0.00819110497832298, 33868, 32592, 23173, NaN
1470963647.004, -0.0167986191809177, -0.00985010527074337, -0.00837875530123711, 33874, 32602, 23178, NaN
1470963648.004, -0.0332132279872894, -0.00963577814400196, -0.00908406730741262, 33883, 32603, 23175, NaN
1470963649.004, -0.0458951555192471, -0.010628561489284, -0.00885927211493254, 33871, 32581, 23176, NaN
1470963650.004, -0.0552510023117065, -0.0103533221408725, -0.00896748062223196, 33866, 32609, 23176, NaN
1470963651.004, -0.0616704933345318, -0.0100691774860024, -0.00784610584378242, 33867, 32606, 23168, NaN
1470963652.004, -0.0655248239636421, -0.00994504429399967, -0.00796157401055098, 33865, 32601, 23181, NaN
1470963653.004, -0.067165270447731, -0.0103459376841784, -0.00825936254113913, 33872, 32594, 23183, NaN
1470963654.004, -0.0669219642877579, -0.00963216926902533, -0.00789173599332571, 33858, 32591, 23186, NaN
1470963655.004, -0.0651029944419861, -0.0102700805291533, -0.00804202072322369, 33872, 32610, 23184, -35.2198867797852
1470963656.004, -0.0619937255978584, -0.0103843761608005, -0.00852028839290142, 33879, 32593, 23180, NaN
1470963657.004, -0.0578564032912254, -0.00958155654370785, -0.00925885327160358, 33876, 32595, 23183, NaN
1470963658.004, -0.0529300160706043, -0.0089580100029707, -0.00989773590117693, 33874, 32605, 23176, NaN
1470963658.004, -0.047430370002985, -0.00823339447379112, -0.00972783099859953, 33881, 32597, 23185, NaN
1470963659.01, -0.0415504276752472, -0.00784902088344097, -0.00945105869323015, 33864, 32594, 23173, NaN
1470963660.01, -0.0354608371853828, -0.0080153988674283, -0.00977961160242558, 33871, 32607, 23179, NaN
1470963661.01, -0.0293106343597174, -0.00748562160879374, -0.00903191138058901, 33858, 32606, 23196, NaN
1470963662.01, -0.0232281405478716, -0.00899603217840195, -0.00868726894259453, 33863, 32605, 23184, NaN
1470963662.01, -0.0173219740390778, -0.00938991270959377, -0.00856515020132065, 33871, 32604, 23175, NaN
1470963663.016, -0.011682191863656, -0.00937888212502003, -0.00817499868571758, 33878, 32595, 23174, NaN
1470963664.016, -0.00638150377199054, -0.00948509387671947, -0.00831858720630407, 33875, 32607, 23183, NaN
1470963665.016, -0.00147658260539174, -0.00896723754703999, -0.00759736215695739, 33869, 32596, 23175, NaN
1470963666.016, 0.00299060298129916, -0.00964078865945339, -0.00788526609539986, 33878, 32600, 23177, NaN
1470963666.016, 0.00699141854420304, -0.00922734290361404, -0.00881444104015827, 33876, 32603, 23178, NaN
1470963667.024, 0.0105091901496053, -0.0098011177033186, -0.00801460444927216, 33858, 32595, 23178, NaN
1470963668.024, 0.0135378437116742, -0.00955499242991209, -0.00729744462296367, 33876, 32614, 23174, NaN
1470963669.024, 0.0160805638879538, -0.00915531534701586, -0.00688736094161868, 33867, 32609, 23189, NaN
1470963670.024, 0.018148509785533, -0.00810770969837904, -0.00758934952318668, 33866, 32596, 23177, NaN
1470963670.024, 0.0197595674544573, -0.00830401293933392, -0.00878239516168833, 33869, 32601, 23172, NaN
1470963671.032, 0.0199007093906403, -0.00846527330577374, -0.00812521670013666, 33862, 32602, 23184, NaN
1470963672.032, 0.0163511093705893, -0.00944100879132748, -0.00868429522961378, 33865, 32611, 23178, NaN
1470963673.032, 0.0106789814308286, -0.00955405086278915, -0.00872692838311195, 33863, 32595, 23183, NaN
1470963674.032, 0.00416565220803022, -0.00968764163553715, -0.00875495001673698, 33873, 32592, 23183, NaN
1470963675.022, -0.00305301905609667, -0.00932059343904257, -0.00869210343807936, 33873, 32586, 23178, NaN
1470963676.022, -0.00966653693467379, -0.00987647473812103, -0.00952137727290392, 33870, 32599, 23173, NaN
1470963677.022, -0.0146525297313929, -0.00976690649986267, -0.00936441030353308, 33870, 32598, 23181, NaN
1470963678.022, -0.0188718624413013, -0.0107749393209815, -0.00882607605308294, 33867, 32598, 23190, NaN
1470963679.022, -0.0223198160529137, -0.0101910615339875, -0.00896823778748512, 33874, 32596, 23170, NaN
1470963680.022, -0.0239128582179546, -0.0105061074718833, -0.00923924800008535, 33872, 32591, 23174, NaN
1470963681.022, -0.0233112778514624, -0.0111917993053794, -0.00980734825134277, 33868, 32598, 23173, NaN
1470963682.022, -0.021595099940896, -0.0123774530366063, -0.00945266149938107, 33861, 32604, 23181, NaN
1470963683.022, -0.0192964971065521, -0.01146708894521, -0.00948996283113956, 33872, 32601, 23176, NaN
1470963684.022, -0.0155148720368743, -0.0121277356520295, -0.00949099659919739, 33867, 32603, 23175, NaN
1470963685.022, -0.00993851572275162, -0.0121105620637536, -0.00922839529812336, 33863, 32603, 23178, NaN
1470963686.022, -0.00275962264277041, -0.0127052618190646, -0.00946041475981474, 33873, 32606, 23170, NaN
1470963687.022, 0.00478609325364232, -0.0128519041463733, -0.00930465664714575, 33887, 32608, 23181, NaN
1470963688.022, 0.0120673421770334, -0.0127881318330765, -0.00948859844356775, 33872, 32607, 23177, NaN
1470963689.022, 0.0186461005359888, -0.0118902791291475, -0.0097323814406991, 33865, 32595, 23184, NaN
1470963689.022, 0.024627186357975, -0.0115607408806682, -0.00961063150316477, 33871, 32600, 23175, NaN
1470963690.024, 0.0297247413545847, -0.0117695312947035, -0.00956061482429504, 33868, 32595, 23177, NaN
1470963691.024, 0.0347395241260529, -0.0108409244567156, -0.00926096923649311, 33858, 32599, 23189, NaN
1470963692.024, 0.039232823997736, -0.0110243884846568, -0.00968000572174788, 33881, 32594, 23170, NaN
1470963693.024, 0.0429763123393059, -0.0107901571318507, -0.010586523450911, 33865, 32595, 23183, NaN
1470963693.024, 0.0457112304866314, -0.0102309547364712, -0.0103057892993093, 33856, 32602, 23195, NaN
1470963694.026, 0.0477328225970268, -0.0106463162228465, -0.0104643441736698, 33869, 32601, 23179, NaN
1470963695.026, 0.0494477599859238, -0.0103079564869404, -0.0103356186300516, 33877, 32606, 23177, NaN
1470963696.026, 0.0500789918005466, -0.0110274711623788, -0.0105679295957088, 33875, 32607, 23170, NaN
1470963697.026, 0.0500324890017509, -0.0114207295700908, -0.0109576750546694, 33873, 32600, 23180, NaN
1470963698.026, 0.0488650277256966, -0.0122208213433623, -0.0119363190606236, 33878, 32601, 23171, NaN
1470963699.026, 0.0468824133276939, -0.0123020950704813, -0.0123506272211671, 33869, 32598, 23183, NaN
1470963700.026, 0.043579239398241, -0.0122489472851157, -0.0129803223535419, 33868, 32604, 23181, NaN
1470963701.026, 0.0408121533691883, -0.0122015457600355, -0.0133213801309466, 33869, 32601, 23174, NaN
1470963702.026, 0.0382230840623379, -0.0119900982826948, -0.0137378247454762, 33860, 32610, 23180, NaN
1470963703.026, 0.035806518048048, -0.0121360067278147, -0.0150731941685081, 33871, 32606, 23185, NaN
1470963704.026, 0.0328737646341324, -0.0111668957397342, -0.0149983111768961, 33864, 32598, 23179, NaN
1470963705.026, 0.029242554679513, -0.0112805375829339, -0.0154516864567995, 33868, 32587, 23174, NaN
1470963706.026, 0.0249954536557198, -0.0124399587512016, -0.0155288260430098, 33876, 32605, 23171, NaN
1470963707.026, 0.0191947147250175, -0.0121157914400101, -0.0154960574582219, 33864, 32599, 23190, NaN
1470963708.026, 0.0130373556166887, -0.0117921829223633, -0.0162075851112604, 33865, 32600, 23184, NaN
1470963709.026, 0.00699746748432517, -0.0124176824465394, -0.0153256570920348, 33878, 32608, 23180, -39.1536636352539
1470963710.026, 0.00112772209104151, -0.0119896400719881, -0.015462632291019, 33883, 32596, 23182, NaN
1470963711.026, -0.00380830164067447, -0.0121515588834882, -0.0153631325811148, 33871, 32596, 23177, NaN
1470963712.026, -0.00878155324608088, -0.0118727535009384, -0.0151548692956567, 33856, 32613, 23181, NaN
1470963713.026, -0.0141474539414048, -0.010698551312089, -0.0140785668045282, 33867, 32603, 23189, NaN
1470963714.026, -0.0187135674059391, -0.00969648361206055, -0.0147967636585236, 33863, 32608, 23187, NaN
1470963715.026, -0.0224933102726936, -0.00942415371537209, -0.0149542121216655, 33865, 32593, 23184, NaN
1470963716.026, -0.0259384624660015, -0.00900568626821041, -0.0151154017075896, 33873, 32607, 23177, NaN
1470963716.026, -0.0294821746647358, -0.00868299324065447, -0.0158774945884943, 33860, 32592, 23186, NaN
1470963717.032, -0.0326576344668865, -0.00831369031220675, -0.0161845926195383, 33871, 32601, 23176, NaN
1470963718.032, -0.0337850488722324, -0.00777305662631989, -0.0160939320921898, 33869, 32602, 23169, NaN
1470963719.032, -0.0343444645404816, -0.00738813541829586, -0.0167099107056856, 33861, 32614, 23180, NaN
1470963720.032, -0.0351528413593769, -0.00704020075500011, -0.0172622241079807, 33869, 32609, 23185, NaN
1470963720.032, -0.0351238735020161, -0.00667839217931032, -0.0169817321002483, 33870, 32597, 23185, NaN
1470963721.04, -0.0343931950628757, -0.00643242429941893, -0.0171584915369749, 33872, 32605, 23197, NaN
1470963722.04, -0.0330838449299335, -0.00584727432578802, -0.0169605650007725, 33875, 32607, 23178, NaN
1470963723.04, -0.0310223232954741, -0.00672745471820235, -0.0174102559685707, 33875, 32611, 23180, NaN
1470963724.04, -0.0287683438509703, -0.00697071524336934, -0.0175631996244192, 33861, 32596, 23178, NaN
1470963724.04, -0.0261122230440378, -0.00689323712140322, -0.0179705154150724, 33862, 32608, 23183, NaN
1470963725.048, -0.0243974924087524, -0.00715959956869483, -0.0186038799583912, 33871, 32598, 23173, NaN
1470963726.048, -0.0223960243165493, -0.00708965118974447, -0.0181071646511555, 33880, 32598, 23162, NaN
1470963727.048, -0.0203012898564339, -0.00662565650418401, -0.0184006355702877, 33859, 32604, 23192, NaN
1470963728.048, -0.0188597030937672, -0.00532410619780421, -0.0178988855332136, 33875, 32606, 23177, NaN
1470963728.048, -0.0178718864917755, -0.00586463138461113, -0.0181766785681248, 33864, 32593, 23181, NaN
1470963729.056, -0.0159292910248041, -0.00617199158295989, -0.0175832826644182, 33880, 32610, 23175, NaN
1470963730.056, -0.0129243098199368, -0.00611387100070715, -0.0179286357015371, 33872, 32599, 23175, NaN
1470963731.056, -0.00952380057424307, -0.00619309535250068, -0.0188346467912197, 33882, 32612, 23172, NaN
1470963732.056, -0.00658141169697046, -0.00633495906367898, -0.0187908746302128, 33877, 32595, 23179, NaN
1470963733.046, -0.00477654812857509, -0.00616401340812445, -0.0194630809128284, 33862, 32601, 23179, NaN
1470963734.046, -0.00199538026936352, -0.00642177509143949, -0.0188178271055222, 33874, 32602, 23186, NaN
1470963735.046, 0.000489737489260733, -0.00684753013774753, -0.0190006885677576, 33875, 32594, 23181, NaN
1470963736.046, 0.00278291874565184, -0.00704537983983755, -0.0188299063593149, 33874, 32595, 23174, NaN
1470963737.046, 0.00594838103279471, -0.00716555770486593, -0.0187387466430664, 33867, 32603, 23183, NaN
1470963738.046, 0.00967981852591038, -0.00762929068878293, -0.018589049577713, 33876, 32597, 23175, NaN
1470963739.046, 0.0139136565849185, -0.00758138904348016, -0.0185646321624517, 33871, 32599, 23180, NaN
1470963740.046, 0.0176451280713081, -0.00764095922932029, -0.0184310656040907, 33878, 32593, 23178, NaN
1470963741.046, 0.0210556443780661, -0.00625282432883978, -0.016846738755703, 33869, 32609, 23190, NaN
1470963742.046, 0.0236412920057774, -0.00619722064584494, -0.0165512226521969, 33872, 32608, 23184, NaN
1470963743.046, 0.0258274488151073, -0.00594735890626907, -0.0161337666213512, 33866, 32606, 23179, NaN
1470963744.046, 0.0277270562946796, -0.0061754728667438, -0.0159364584833384, 33864, 32610, 23196, NaN
1470963745.046, 0.0277265124022961, -0.00567187648266554, -0.0151058612391353, 33865, 32612, 23183, NaN
1470963746.046, 0.0259779710322618, -0.00530653307214379, -0.0156093295663595, 33870, 32606, 23189, NaN
1470963747.046, 0.024162445217371, -0.00541099533438683, -0.0155929764732718, 33864, 32600, 23179, NaN
1470963747.046, 0.0214205887168646, -0.0056179272942245, -0.0154420314356685, 33870, 32605, 23177, NaN
1470963748.048, 0.0181413535028696, -0.00553894555196166, -0.0153258563950658, 33871, 32599, 23172, NaN
1470963749.048, 0.015220251865685, -0.00506595754995942, -0.0149538433179259, 33875, 32601, 23164, NaN
1470963750.048, 0.0118866907432675, -0.00476907473057508, -0.0150469122454524, 33859, 32603, 23176, NaN
1470963751.048, 0.00823580473661423, -0.00488450471311808, -0.0141092957928777, 33869, 32597, 23180, NaN
1470963751.048, 0.00411937199532986, -0.00577191635966301, -0.0146758435294032, 33865, 32603, 23179, NaN
1470963752.05, -0.000957977958023548, -0.00596323562785983, -0.0141554372385144, 33863, 32607, 23187, NaN
1470963753.05, -0.00490075070410967, -0.00631985208019614, -0.0143690323457122, 33873, 32599, 23191, NaN
1470963754.05, -0.00854888185858727, -0.00549955992028117, -0.014923769980669, 33881, 32606, 23170, NaN
1470963755.05, -0.011606952175498, -0.00525748310610652, -0.0147219663485885, 33865, 32595, 23185, NaN
1470963756.05, -0.0132619040086865, -0.00470007117837667, -0.0141255892813206, 33858, 32612, 23199, NaN
1470963757.05, -0.0145646687597036, -0.00441337609663606, -0.0130139505490661, 33875, 32596, 23171, NaN
1470963758.05, -0.0140975872054696, -0.00548154069110751, -0.0128517560660839, 33869, 32597, 23181, NaN
1470963759.05, -0.0137066571041942, -0.00502142356708646, -0.013142297975719, 33870, 32608, 23189, NaN
1470963760.05, -0.0134449489414692, -0.00541402213275433, -0.0134250801056623, 33871, 32598, 23182, NaN
1470963761.05, -0.0133197503164411, -0.00504472618922591, -0.0136871626600623, 33873, 32607, 23183, NaN
1470963762.05, -0.0143075445666909, -0.00559958256781101, -0.0138094648718834, 33866, 32606, 23184, NaN
1470963763.05, -0.0147188091650605, -0.00576686020940542, -0.0140170948579907, 33880, 32598, 23173, -36.399299621582
1470963764.05, -0.0144227892160416, -0.00512372981756926, -0.0133019518107176, 33864, 32607, 23180, NaN
1470963765.05, -0.0135828526690602, -0.00540920626372099, -0.0134734511375427, 33869, 32614, 23190, NaN
1470963766.05, -0.0124626522883773, -0.00575268780812621, -0.0139117194339633, 33878, 32602, 23176, NaN
1470963767.05, -0.0110433958470821, -0.00633272342383862, -0.0138254621997476, 33858, 32602, 23179, NaN
1470963768.05, -0.00928974710404873, -0.00571116851642728, -0.0140801258385181, 33859, 32605, 23181, NaN
1470963769.05, -0.0068734367378056, -0.00592562044039369, -0.0147287650033832, 33875, 32596, 23182, NaN
1470963770.05, -0.005263761151582, -0.00472386553883553, -0.0141866598278284, 33854, 32600, 23185, NaN
1470963771.05, -0.00380909070372581, -0.00497491890564561, -0.0135091301053762, 33875, 32600, 23184, NaN
1470963772.05, -0.00226364331319928, -0.00467685330659151, -0.0141324894502759, 33871, 32604, 23172, NaN
1470963773.05, -0.00080287002492696, -0.00567982578650117, -0.0145360110327601, 33858, 32602, 23181, NaN
1470963774.05, 0.000646564702037722, -0.00528618786484003, -0.0149652054533362, 33875, 32608, 23162, NaN
1470963774.05, 0.00197486765682697, -0.00506955059245229, -0.0150384260341525, 33866, 32603, 23189, NaN
1470963775.056, 0.00309230224229395, -0.00531925400719047, -0.014323765411973, 33870, 32609, 23187, NaN
1470963776.056, 0.00394521653652191, -0.0057537779211998, -0.0143029550090432, 33869, 32601, 23188, NaN
1470963777.056, 0.00569381564855576, -0.00554218143224716, -0.014570290222764, 33860, 32598, 23187, NaN
1470963778.056, 0.0134381633251905, -0.00505053391680121, -0.0137896910309792, 33859, 32598, 23189, NaN
1470963778.056, 0.0301928203552961, -0.00417268322780728, -0.0145707298070192, 33885, 32601, 23168, NaN
1470963779.064, 0.0573364496231079, -0.00448099616914988, -0.0147152068093419, 33859, 32602, 23182, NaN
1470963780.064, 0.0944264978170395, -0.00519609544426203, -0.0143820066004992, 33851, 32600, 23190, NaN
1470963781.064, 0.138581067323685, -0.00519670965149999, -0.0134095065295696, 33871, 32615, 23184, NaN
1470963782.064, 0.149114042520523, -0.00513991853222251, -0.0129344183951616, 33868, 32600, 23184, NaN
1470963782.064, 0.103277564048767, -0.00467966683208942, -0.0121048931032419, 33879, 32602, 23184, NaN
1470963783.072, 0.0639166980981827, -0.00475416425615549, -0.0112825753167272, 33880, 32593, 23172, NaN
1470963784.072, 0.0305438209325075, -0.00503271073102951, -0.0117426682263613, 33871, 32601, 23179, NaN
1470963785.072, 0.00267631723545492, -0.00481124268844724, -0.0123402923345566, 33884, 32604, 23164, NaN
1470963786.072, -0.0201611332595348, -0.00380208902060986, -0.0126686878502369, 33870, 32598, 23179, NaN
1470963786.072, -0.0384341403841972, -0.0032789830584079, -0.0138830235227942, 33864, 32593, 23181, NaN
1470963787.08, -0.0525961630046368, -0.00373015156947076, -0.0127214696258307, 33864, 32595, 23188, NaN
1470963788.08, -0.0630861669778824, -0.00379303470253944, -0.0126877687871456, 33864, 32588, 23170, NaN
1470963789.08, -0.0703264027833939, -0.00430226698517799, -0.0126569513231516, 33864, 32604, 23183, NaN
1470963790.07, -0.0747204050421715, -0.00508419005200267, -0.0130209401249886, 33860, 32601, 23184, NaN
1470963791.07, -0.0766512230038643, -0.00435233768075705, -0.0129356952384114, 33852, 32598, 23188, NaN
1470963792.07, -0.0764799639582634, -0.00451053306460381, -0.0130350263789296, 33863, 32597, 23175, NaN
1470963793.07, -0.0745445415377617, -0.00462403800338507, -0.0135574322193861, 33876, 32610, 23180, NaN
1470963794.07, -0.0711588487029076, -0.00480715790763497, -0.0138821760192513, 33865, 32603, 23187, NaN
1470963795.07, -0.0666121169924736, -0.00445474497973919, -0.0147216133773327, 33870, 32594, 23189, NaN
1470963796.07, -0.0611686073243618, -0.00327435042709112, -0.015625, 33866, 32594, 23179, NaN
1470963797.07, -0.0550676286220551, -0.00391916837543249, -0.016884557902813, 33864, 32599, 23170, NaN
1470963798.07, -0.0485237278044224, -0.00424962863326073, -0.0175250042229891, 33875, 32607, 23178, NaN
1470963799.07, -0.0417272076010704, -0.00484770815819502, -0.0168510656803846, 33869, 32598, 23186, NaN
1470963800.07, -0.0348447822034359, -0.00439798645675182, -0.0157908443361521, 33878, 32604, 23174, NaN
1470963801.07, -0.0280204955488443, -0.00473107304424047, -0.016029192134738, 33866, 32599, 23195, NaN
1470963802.07, -0.0213767420500517, -0.00489218439906836, -0.0161284506320953, 33860, 32597, 23191, NaN
1470963803.07, -0.0150154698640108, -0.00562686333432794, -0.0163491945713758, 33862, 32605, 23194, NaN
1470963804.07, -0.00901947449892759, -0.00501914089545608, -0.0164224691689014, 33882, 32599, 23170, NaN
1470963805.07, -0.00345377484336495, -0.0046717575751245, -0.0163940377533436, 33863, 32603, 23187, NaN
1470963805.07, 0.00163294351659715, -0.00421379879117012, -0.0164508689194918, 33864, 32605, 23178, NaN
1470963806.072, 0.00620685098692775, -0.00432608928531408, -0.0157030466943979, 33874, 32595, 23183, NaN